Flag for Germany Past Weather in Fürstenwalde/Spree, Brandenburg, Germany — Yesterday and Last 2 Weeks

Now
86 °F

Passing clouds.


Feels Like: 84 °F
Forecast: 66 / 80 °F
Wind: 7 mph from Northeast

Location: Berlin-Schoenefeld

Current Time: Jul 25, 2016 at 4:09:59 PM

Latest Report: Jul 25, 2016 at 3:20 PM


Visibility: N/A

Pressure: 30.01 "Hg

Humidity: 29%

Dew Point: 50 °F

Location of Fürstenwalde/SpreeLocation

Past Weather in Fürstenwalde/Spree — Graph

°F

Fürstenwalde/Spree Temperature Yesterday

Maximum temperature yesterday: 84 °F (at 3:50 PM)
Minimum temperature yesterday: 63 °F (at 12:50 AM)
Average temperature yesterday: 71 °F

High & Low Weather Summary for the Past Weeks

 TemperatureHumidityPressure
High88 °F (Jul 10, 4:50 PM)100% (Jul 25, 5:50 AM)30.24 "Hg (Jul 25, 5:50 AM)
Low45 °F (Jul 16, 4:20 AM)14% (Jul 22, 3:50 PM)29.71 "Hg (Jul 11, 3:20 AM)
Average69 °F64%30.01 "Hg
* Reported Jul 10 2:20 PM — Jul 25 2:50 PM, Fürstenwalde/Spree, Weather by CustomWeather, © 2016

Note: Actual official high and low records may vary slightly from our data, if they occured in-between our weather recording intervals... More about our weather records

Advertising

Fürstenwalde/Spree Weather History for the Previous 24 Hours

Scroll right to see more
 ConditionsComfort  
Time TempWeatherWind HumidityBarometerVisibility
2:50 PM
Mon, Jul 25
86 °FSunny.5 mph29%30.01 "Hg10 mi
2:20 PM86 °FPassing clouds.7 mph31%30.01 "HgN/A
1:50 PM84 °FSunny.7 mph33%30.04 "Hg10 mi
1:20 PM86 °FSunny.7 mph35%30.04 "Hg10 mi
12:50 PM82 °FPassing clouds.8 mph37%30.04 "HgN/A
12:20 PM84 °FSunny.6 mph37%30.04 "Hg10 mi
11:50 AM82 °FPassing clouds.5 mph37%30.04 "HgN/A
11:20 AM82 °FSunny.2 mph42%30.04 "Hg10 mi
10:50 AM81 °FSunny.5 mph45%30.04 "Hg10 mi
10:20 AM79 °FSunny.5 mph51%30.04 "Hg10 mi
9:50 AM77 °FPassing clouds.6 mph51%30.07 "HgN/A
9:20 AM75 °FPassing clouds.5 mph61%30.07 "HgN/A
8:50 AM73 °FPassing clouds.3 mph65%30.07 "HgN/A
8:20 AM72 °FSunny.1 mph73%30.07 "Hg10 mi
7:50 AM68 °FSunny.2 mph83%30.07 "Hg10 mi
7:20 AM66 °FClear.2 mph88%30.07 "Hg6 mi
6:50 AM64 °FClear.No wind94%30.07 "Hg6 mi
6:20 AM63 °FFog.No wind94%30.07 "Hg6 mi
5:50 AM61 °FFog.2 mph100%30.07 "Hg5 mi
5:20 AM63 °FFog.3 mph94%30.07 "Hg5 mi
4:50 AM61 °FFog.2 mph94%30.07 "HgN/A
4:20 AM61 °FClear.3 mph94%30.07 "Hg10 mi
3:50 AM61 °FClear.3 mph94%30.07 "Hg10 mi
3:20 AM61 °FClear.3 mph94%30.07 "Hg10 mi
2:50 AM63 °FClear.1 mph94%30.07 "Hg10 mi
2:20 AM63 °FClear.No wind88%30.07 "Hg10 mi
1:50 AM64 °FClear.No wind88%30.07 "Hg10 mi
1:20 AM64 °FClear.1 mph88%30.07 "Hg10 mi
12:50 AM66 °FClear.2 mph83%30.07 "Hg10 mi
12:20 AM68 °FClear.3 mph78%30.07 "Hg10 mi
11:50 PM
Sun, Jul 24
68 °FClear.3 mph78%30.07 "Hg10 mi
11:20 PM68 °FClear.3 mph73%30.07 "Hg10 mi
10:50 PM70 °FClear.5 mph73%30.07 "Hg10 mi
10:20 PM72 °FClear.5 mph65%30.07 "Hg10 mi
9:50 PM72 °FSunny.3 mph65%30.07 "Hg10 mi
9:20 PM73 °FPassing clouds.6 mph57%30.07 "HgN/A
8:50 PM77 °FSunny.2 mph51%30.07 "Hg10 mi
8:20 PM77 °FSunny.5 mph51%30.04 "Hg10 mi
7:50 PM79 °FPassing clouds.3 mph48%30.04 "HgN/A
7:20 PM79 °FPassing clouds.6 mph48%30.04 "HgN/A
6:50 PM81 °FPassing clouds.7 mph42%30.04 "HgN/A
6:20 PM81 °FPassing clouds.6 mph45%30.04 "HgN/A
5:50 PM79 °FPassing clouds.8 mph48%30.07 "HgN/A
5:20 PM81 °FPassing clouds.8 mph42%30.07 "HgN/A
4:50 PM81 °FPassing clouds.7 mph45%30.07 "HgN/A
4:20 PM81 °FPassing clouds.6 mph42%30.07 "HgN/A
Weather by CustomWeather, © 2016

See weather overviewHow to use our weather pages